[[{"header":{"parameterUnit":"m.s-1","parameterCategory":1,"la1":30.2991,"la2":30.254,"lo1":-89.0895,"lo2":-89.0444,"dy":0.0017,"dx":0.0017,"nx":28,"ny":28,"refTime":"2024-07-14T09:00:00:Z","depth":0,"parameterNumber":2,"parameterNumberName":"U-component_of_WINDS"},"data":[0,0,0,0,0,0,0,0,0,0,0,0,0,0,0,0,0,0,0,0,0,0,0,0,0,0,0,0,0,0,0,0,0,0,0,0,0,0,0,0,0,0,0,0,0,0,0,0,0,0,0,0,0,0,0,0,0,0,0.4217,0.4217,0,0.4236,0.4236,0.4237,0.4252,0.4252,0.4253,0.4253,0.4275,0.4275,0.4276,0,0,0,0,0,0,0,0,0,0,0,0,0,0.4195,0.4195,0.4217,0.4217,0.4217,0.4236,0.4236,0.4237,0.4252,0.4252,0.4253,0.4253,0.4275,0.4275,0.4276,0,0,0,0,0,0,0,0,0,0,0,0,0,0.4208,0.4195,0.4217,0.4227,0.4228,0.4236,0.4236,0.4237,0.4252,0.4252,0.4253,0.4253,0.4275,0.4275,0.4276,0.4276,0,0,0.4278,0.4278,0,0,0,0,0,0,0,0,0.4207,0.4209,0.4225,0.4226,0.4228,0.4242,0.4237,0.425,0.4252,0.4243,0.4253,0.4253,0.4264,0.4266,0.4269,0.4277,0.4278,0.4278,0.4279,0.4279,0.4279,0,0,0,0,0,0,0,0.4207,0.4208,0.4224,0.4225,0.4227,0.4231,0.4234,0.4239,0.4252,0.4244,0.4245,0.4247,0.4265,0.4268,0.4269,0.4278,0.4278,0.4279,0.4279,0.4279,0.4287,0.4287,0,0,0,0,0,0,0.4204,0.4207,0.4224,0.4225,0.4218,0.4232,0.4234,0.4237,0.4252,0.4255,0.4247,0.4248,0.4267,0.4269,0.427,0.4271,0.4279,0.428,0.428,0.4287,0.4287,0.4287,0,0,0,0,0,0,0.4203,0.4205,0.4223,0.4216,0.4219,0.4232,0.4235,0.4237,0.4241,0.4254,0.4257,0.4248,0.4267,0.4269,0.4274,0.4272,0.428,0.428,0.4288,0.4287,0.4287,0.4273,0,0,0,0,0,0,0.4202,0.4205,0.4204,0.4216,0.4219,0.4226,0.4235,0.4238,0.4242,0.4243,0.4256,0.4258,0.4267,0.4273,0.4275,0.4273,0.4281,0.4288,0.4287,0.4287,0.4273,0.4272,0.4271,0,0,0,0,0,0.4202,0.42,0.4204,0.4206,0.4219,0.4226,0.4227,0.4237,0.4241,0.4241,0.425,0.4258,0.4272,0.4273,0.4276,0.4274,0.4288,0.4288,0.4287,0.4274,0.4272,0.4271,0,0,0,0,0,0,0.4188,0.4202,0.4206,0.4208,0.4216,0.4228,0.4229,0.4235,0.4242,0.4243,0.4256,0.4258,0.4262,0.4269,0.427,0.4275,0.4281,0.4281,0.427,0.4269,0.4267,0.4266,0.4282,0,0,0,0,0,0.4185,0.4189,0.4201,0.4201,0.4205,0.4216,0.4219,0.4226,0.4234,0.4238,0.4247,0.4255,0.4261,0.4265,0.4272,0.4274,0.4278,0.4274,0.4273,0.4272,0.4272,0.4274,0.4273,0.4285,0.4285,0.4285,0,0,0.4179,0.4187,0.4189,0.4199,0.4205,0.4209,0.4218,0.4222,0.4226,0.4239,0.4244,0.425,0.4261,0.4264,0.4266,0.427,0.4269,0.4271,0.427,0.4271,0.4273,0.4272,0.4271,0.4285,0.4285,0.4285,0,0,0.4171,0.4177,0.4178,0.4184,0.4194,0.4201,0.4201,0.4213,0.4218,0.4223,0.4232,0.4237,0.4248,0.4255,0.4259,0.4254,0.4261,0.4255,0.4248,0.425,0.4249,0.4249,0.4247,0.4246,0.4255,0.4255,0.4255,0,0.4163,0.4169,0.4178,0.4182,0.4186,0.4197,0.4199,0.4204,0.4216,0.4219,0.4222,0.4236,0.4243,0.4249,0.4247,0.4251,0.4252,0.4254,0.4249,0.4248,0.4247,0.4246,0.4245,0.4254,0.4255,0.4255,0.4255,0,0.4159,0.4163,0.4163,0.4172,0.4177,0.4179,0.419,0.4193,0.42,0.4207,0.4212,0.4221,0.423,0.4232,0.4239,0.4239,0.4241,0.4246,0.4253,0.4245,0.4244,0.4244,0.4253,0.4254,0.4254,0.4254,0,0,0.4143,0.4157,0.4157,0.4162,0.4173,0.4177,0.418,0.4188,0.419,0.4198,0.4201,0.421,0.4215,0.422,0.4228,0.423,0.4225,0.4235,0.4236,0.4233,0.4226,0.4222,0.4221,0.423,0.423,0.423,0.4225,0,0.4137,0.4142,0.4151,0.4154,0.4158,0.4168,0.4171,0.4179,0.4186,0.4191,0.4199,0.4205,0.4211,0.4214,0.4216,0.4225,0.4224,0.4225,0.4234,0.4234,0.4231,0.4221,0.4216,0.4212,0.4225,0.4225,0.4225,0,0.413,0.4136,0.414,0.415,0.4152,0.4155,0.4163,0.4167,0.4176,0.4181,0.4187,0.4195,0.4199,0.4205,0.4212,0.4213,0.4217,0.4222,0.4222,0.4223,0.4229,0.4222,0.4211,0.421,0.4224,0.4224,0.4224,0,0.4119,0.4128,0.4131,0.4135,0.4147,0.4148,0.4154,0.4163,0.4167,0.4174,0.4177,0.4185,0.4189,0.4196,0.4206,0.4209,0.4212,0.4218,0.4217,0.4217,0.4218,0.4217,0.4207,0.4219,0.4219,0.4219,0.4219,0,0.4111,0.4113,0.4126,0.4128,0.413,0.4141,0.4143,0.4149,0.4157,0.4161,0.4171,0.4174,0.4187,0.4193,0.4201,0.4206,0.4208,0.4212,0.4215,0.4212,0.4211,0.4215,0.4216,0.4219,0.4219,0.4219,0.4219,0,0.4099,0.4108,0.4112,0.4123,0.4126,0.4127,0.4137,0.414,0.4147,0.4152,0.4154,0.4166,0.4173,0.4183,0.4193,0.4199,0.4203,0.4206,0.4199,0.4201,0.4199,0.4199,0.4191,0.419,0.4203,0.4202,0.4202,0,0.4094,0.4095,0.4106,0.4109,0.4114,0.4119,0.4123,0.4133,0.4137,0.4147,0.4149,0.4156,0.4163,0.4174,0.4184,0.4192,0.4196,0.4192,0.4197,0.4194,0.4196,0.4196,0.4197,0.4191,0.4191,0.4191,0.4191,0,0.4084,0.4088,0.4093,0.41,0.4104,0.411,0.4117,0.4119,0.4131,0.4135,0.4141,0.4146,0.4157,0.4164,0.4173,0.418,0.4188,0.4189,0.4189,0.4186,0.4183,0.4185,0.4197,0.4189,0.4189,0.4189,0.419,0.419,0.4075,0.4077,0.4085,0.4091,0.4096,0.4102,0.4105,0.4113,0.4118,0.4127,0.4133,0.4139,0.4148,0.4162,0.4168,0.4173,0.4177,0.4177,0.4177,0.4177,0.4176,0.4181,0.4175,0.4175,0.4175,0.4175,0.4175,0,0.4066,0.4072,0.4076,0.4085,0.4089,0.4095,0.4103,0.4106,0.4112,0.4119,0.4125,0.4133,0.4141,0.4151,0.4159,0.4162,0.4166,0.4164,0.4164,0.4166,0.4173,0.4172,0.4161,0.4161,0.4161,0.4161,0.4161,0.4161,0.4062,0.4065,0.407,0.4077,0.4083,0.4089,0.4093,0.4098,0.4104,0.4112,0.4118,0.4125,0.4134,0.4143,0.415,0.4153,0.4156,0.4153,0.4157,0.4164,0.4165,0.4166,0.4166,0.4153,0.4153,0.415,0.415,0.415]},{"header":{"parameterUnit":"m.s-1","parameterCategory":1,"la1":30.2991,"la2":30.254,"lo1":-89.0895,"lo2":-89.0444,"dy":0.0017,"dx":0.0017,"nx":28,"ny":28,"refTime":"2024-07-14T09:00:00:Z","depth":0,"parameterNumber":3,"parameterNumberName":"V-component_of_WINDS"},"data":[0,0,0,0,0,0,0,0,0,0,0,0,0,0,0,0,0,0,0,0,0,0,0,0,0,0,0,0,0,0,0,0,0,0,0,0,0,0,0,0,0,0,0,0,0,0,0,0,0,0,0,0,0,0,0,0,0,0,2.6004,2.6005,0,2.6043,2.6043,2.6044,2.6036,2.6035,2.6034,2.6034,2.6072,2.6074,2.6076,0,0,0,0,0,0,0,0,0,0,0,0,0,2.592,2.5921,2.6004,2.6005,2.6005,2.6043,2.6043,2.6044,2.6036,2.6035,2.6034,2.6033,2.6072,2.6074,2.6076,0,0,0,0,0,0,0,0,0,0,0,0,0,2.5957,2.5922,2.6004,2.6006,2.6006,2.6042,2.6043,2.6044,2.6036,2.6035,2.6034,2.6033,2.6071,2.6074,2.6076,2.6113,0,0,2.6084,2.6085,0,0,0,0,0,0,0,0,2.5955,2.596,2.6005,2.6006,2.6006,2.6033,2.6028,2.6067,2.6036,2.6025,2.6034,2.6032,2.606,2.6063,2.6073,2.6115,2.6116,2.6084,2.6086,2.6087,2.6087,0,0,0,0,0,0,0,2.5953,2.5959,2.6019,2.6006,2.6006,2.6003,2.6007,2.6035,2.6048,2.6026,2.6025,2.603,2.606,2.6071,2.6074,2.6117,2.6084,2.6086,2.6088,2.6089,2.6186,2.6187,0,0,0,0,0,0,2.595,2.5956,2.6018,2.602,2.5978,2.6006,2.601,2.6026,2.6047,2.605,2.6031,2.6029,2.6067,2.6071,2.6075,2.6117,2.6087,2.6089,2.609,2.6185,2.6186,2.6187,0,0,0,0,0,0,2.5948,2.5955,2.6017,2.5988,2.5996,2.6008,2.6026,2.6027,2.6037,2.6051,2.6053,2.6039,2.6066,2.6072,2.6103,2.6118,2.609,2.6092,2.6184,2.6185,2.6187,2.6202,0,0,0,0,0,0,2.5945,2.5955,2.597,2.5989,2.5997,2.6044,2.6027,2.6028,2.6042,2.604,2.606,2.6062,2.6066,2.6099,2.6105,2.6121,2.6094,2.6182,2.6184,2.6186,2.62,2.6204,2.6207,0,0,0,0,0,2.5943,2.5974,2.5971,2.5978,2.6017,2.6046,2.605,2.6054,2.6043,2.6058,2.6066,2.6061,2.6115,2.6102,2.6109,2.6126,2.6181,2.6184,2.6186,2.6199,2.6203,2.6207,0,0,0,0,0,0,2.5957,2.5976,2.5973,2.6012,2.6027,2.6044,2.6063,2.606,2.6078,2.6076,2.608,2.6084,2.6115,2.6124,2.6109,2.616,2.6147,2.6151,2.6154,2.6158,2.6162,2.6158,2.6097,0,0,0,0,0,2.5965,2.5987,2.6002,2.6034,2.6042,2.6051,2.6064,2.6065,2.6081,2.6087,2.6098,2.6113,2.6133,2.6146,2.6166,2.6201,2.6204,2.6216,2.622,2.6222,2.6225,2.6241,2.6246,2.6195,2.6195,2.6195,0,0,2.5981,2.5994,2.6008,2.6037,2.6049,2.6071,2.6057,2.6081,2.6096,2.6091,2.612,2.6128,2.6145,2.6177,2.6192,2.6186,2.624,2.6225,2.6227,2.6229,2.6244,2.6249,2.6253,2.6197,2.6197,2.6196,0,0,2.602,2.6034,2.606,2.6072,2.6089,2.6095,2.6101,2.6118,2.6122,2.6152,2.6147,2.6165,2.62,2.6211,2.6221,2.6261,2.6256,2.6267,2.6285,2.63,2.6304,2.6308,2.6319,2.6323,2.627,2.627,2.627,0,2.6038,2.6071,2.6074,2.6097,2.6109,2.6104,2.6129,2.6141,2.6164,2.6171,2.6164,2.6205,2.6216,2.6249,2.6258,2.6268,2.6273,2.6265,2.6303,2.6307,2.631,2.6321,2.6326,2.6271,2.6271,2.6271,2.6271,0,2.609,2.6112,2.6131,2.6152,2.6166,2.6191,2.6196,2.6209,2.6208,2.6213,2.6241,2.6254,2.6274,2.6282,2.6283,2.6314,2.6309,2.6303,2.6288,2.6316,2.6326,2.633,2.6273,2.6272,2.6272,2.6272,0,0,2.6142,2.6161,2.6168,2.6176,2.6193,2.621,2.6233,2.6252,2.6262,2.6277,2.6295,2.6323,2.6315,2.6327,2.6328,2.6342,2.6368,2.6333,2.6333,2.6337,2.64,2.6404,2.6409,2.6365,2.6366,2.6367,2.6398,0,2.6181,2.6221,2.6222,2.6258,2.6277,2.6271,2.629,2.6302,2.6307,2.6322,2.6327,2.6346,2.6337,2.6343,2.6356,2.6362,2.638,2.636,2.638,2.638,2.6374,2.6415,2.642,2.6449,2.6402,2.6403,2.6404,0,2.6232,2.6247,2.6285,2.6296,2.6304,2.6321,2.6337,2.6353,2.6365,2.6367,2.6378,2.6376,2.6397,2.6382,2.641,2.6395,2.6403,2.6407,2.6408,2.6409,2.6393,2.6415,2.6459,2.6462,2.641,2.641,2.6409,0,2.6262,2.6292,2.6317,2.6325,2.6339,2.6351,2.6357,2.6368,2.6379,2.6392,2.6398,2.6414,2.6423,2.6434,2.6436,2.6426,2.6462,2.6449,2.6463,2.6463,2.6471,2.647,2.6514,2.6478,2.6478,2.6478,2.6478,0,2.6305,2.6327,2.6331,2.6346,2.637,2.6371,2.6394,2.6399,2.6409,2.6424,2.642,2.6434,2.6436,2.645,2.6451,2.6472,2.6476,2.6477,2.6477,2.6477,2.6477,2.6482,2.6479,2.6479,2.6479,2.6479,2.6479,0,2.6343,2.6346,2.6373,2.6383,2.6386,2.6403,2.6411,2.6425,2.6428,2.6447,2.6452,2.6457,2.6473,2.6475,2.6495,2.6495,2.6519,2.6518,2.6515,2.6514,2.6528,2.6526,2.6576,2.6582,2.6543,2.6544,2.6544,0,2.6369,2.6386,2.6397,2.6406,2.6413,2.6429,2.6438,2.6439,2.6449,2.6462,2.6473,2.6489,2.6501,2.6526,2.6531,2.6545,2.6543,2.6559,2.6545,2.6543,2.654,2.6539,2.6539,2.6562,2.6562,2.6563,2.6563,0,2.6414,2.6414,2.6428,2.6442,2.6453,2.6464,2.6475,2.6482,2.6484,2.6495,2.6511,2.652,2.6538,2.6552,2.6565,2.6571,2.6566,2.6567,2.6571,2.657,2.6567,2.6567,2.6521,2.6566,2.6566,2.6565,2.6565,2.6565,2.6446,2.6459,2.6468,2.6482,2.649,2.6499,2.6511,2.6515,2.6528,2.6542,2.6542,2.6558,2.6567,2.6584,2.659,2.6602,2.6596,2.6603,2.6604,2.6605,2.6605,2.6566,2.6604,2.6604,2.6604,2.6604,2.6604,0,2.6488,2.6493,2.6507,2.652,2.6531,2.6525,2.6536,2.6545,2.6559,2.6568,2.6579,2.6595,2.6609,2.6614,2.6626,2.6635,2.6633,2.6638,2.6636,2.6637,2.661,2.6605,2.6639,2.6639,2.6639,2.6639,2.6639,2.6639,2.6512,2.6533,2.6533,2.6557,2.6561,2.6577,2.6583,2.659,2.6596,2.6615,2.6625,2.6628,2.6634,2.6647,2.6658,2.6659,2.6663,2.6669,2.6669,2.6643,2.664,2.6636,2.6631,2.667,2.667,2.6694,2.6694,2.6695]}]]